Starlink 5994

operational
NORAD ID: 56457 Int'l Des: 2023-064 Owner: SPXS Country: US Constellation: starlink
LEOCIRCULAR

About Starlink 5994

Description loading...

Live Position

Loading 3D Globe...

Upcoming Passes

Altitude History

Altitude vs Time

uPlot chart will show altitude changes over time

Two-Line Element Set

1 56457U 23064K 25257.36367195 .00000390 00000-0 40489-4 0 9994
2 56457 69.9988 229.0529 0003508 268.6363 91.4394 14.98332348128834
Epoch: Sep 14, 2025 • Age: 23 hours

Current Status

Altitude 585.6 km
Velocity 7.57 km/s
Sub-Earth Point 68.08°N, 176.51°W
Launch Date May 10, 2023
Age 2.3 years
Type internet

Technical Details

Classification Payload
Mass 305.00 kg
Dry Mass 290.00 kg
Total Mass 305.00 kg
Length 0.20 m
Diameter 2.80 m
Span 9.00 m
Shape Box + pan
Manufacturer SPXS
Bus Type Starlink
Phase Status In Orbit
Owner/State SPXS/US

Large Constellations

Loading constellations...